{"data":{"norad_id":50205,"epoch":"2026-09-20T01:43:51.395232Z","epoch_age_seconds":82291,"freshness":"FRESH","line1":"1 50205U 21125BB  26263.07212263  .00000292  00000+0  21175-4 0  9997","line2":"2 50205  53.1604  50.8054 0001000  98.8150 261.2965 15.31701775266571","mean_motion":15.31701775,"eccentricity":0.0001,"inclination_deg":53.1604,"raan_deg":50.8054,"arg_perigee_deg":98.815,"mean_anomaly_deg":261.2965,"bstar":2.1175e-5,"rev_number":26657,"period_min":94.01307901468,"perigee_km":470.04981687772,"apogee_km":471.41959121853,"semimajor_km":6848.8717040481,"source":"CELESTRAK","updated_at":"2026-09-20T09:00:39.574546Z"}}